Regional Weather Roundup
Issued by NWS

Home | Current Version | Previous Version | Graphics & Text | Print | Product List | Glossary On
Versions: 1 2 3 4 5 6 7 8 9 10 11 12 13 14 15 16 17 18 19 20 21 22 23 24 25 26 27 28 29 30 31 32 33 34 35 36 37 38 39 40 41 42 43 44 45 46 47 48 49 50
000
ASUS44 KMEG 032000
RWRTN
TENNESSEE HOURLY STATE WEATHER ROUNDUP
NATIONAL WEATHER SERVICE MEMPHIS TN
300 PM CDT MON AUG 03 2015

TNZ002-004-019-021-049-052-054-088>092-032100-
WEST TENNESSEE

CITY           SKY/WX    TMP DP  RH WIND       PRES   REMARKS
MEMPHIS INTL   PTSUNNY   97  65  34 VRB3      29.93S HX  99
NWS MEMPHIS      N/A     95 N/A N/A MISG        N/A
JACKSON        MOSUNNY   96  68  39 W9        29.93S HX 101
DYERSBURG        N/A    N/A N/A N/A MISG        N/A
PARIS          SUNNY     90  66  45 VRB3      29.93S HX  92
LEXINGTON      MOSUNNY   95  66  38 VRB5      29.92F HX  98
$$

TNZ008-025-027-028-033-062-065-066-032100-
NORTH MIDDLE TENNESSEE

CITY           SKY/WX    TMP DP  RH WIND       PRES   REMARKS
NASHVILLE      PTSUNNY   93  64  38 VRB5      29.93S HX  94
CLARKSVILLE    SUNNY     91  71  51 W9        29.91F HX  97
CROSSVILLE     MOSUNNY   85  65  51 CALM      30.01F
$$

TNZ061-075-076-078-094-096-097-032100-
SOUTH MIDDLE TENNESSEE

CITY           SKY/WX    TMP DP  RH WIND       PRES   REMARKS
FAYETTEVILLE     N/A     90  64  43 CALM      29.96S HX  91
SHELBYVILLE    MOSUNNY   93  70  46 VRB3      29.95F HX  99
$$

TNZ017-018-042-046-047-032100-
NORTHEAST TENNESSEE

CITY           SKY/WX    TMP DP  RH WIND       PRES   REMARKS
TRI CITIES     MOSUNNY   89  57  33 W8        29.97F
$$

TNZ012-013-036-069-073-074-032100-
CENTRAL EAST TENNESSEE

CITY           SKY/WX    TMP DP  RH WIND       PRES   REMARKS
KNOXVILLE      MOSUNNY   90  57  32 CALM      29.94F
OAK RIDGE      SUNNY     91  61  36 VRB3      29.96F HX  91
GATLINBURG       N/A     90  54  29 VRB7      29.94F
$$

TNZ083-085-099-032100-
SOUTHEAST TENNESSEE

CITY           SKY/WX    TMP DP  RH WIND       PRES   REMARKS
CHATTANOOGA    MOSUNNY   93  55  27 N6        29.94F HX  91
$$

SKY/WX REPORTED AS FAIR MEANS FEW OR NO CLOUDS BELOW
12 THOUSAND FEET.



USA.gov is the U.S. government's official web portal to all federal, state and local government web resources and services.